Flag for Cuba Weather past 2 weeks in Holguín, Cuba

Now
77 °F

Overcast.


Feels Like: 79 °F
Forecast: 72 / 87 °F
Wind: 7 mph from East

Location: Holguin Civ / Mil

Current Time: May 29, 2015 at 2:49:59 AM

Latest Report: May 29, 2015 at 1:50 AM


Visibility: N/A

Pressure: 29.98 "Hg

Humidity: 74%

Dew point: 68 °F

Location of HolguínLocation

Historic Weather in Holguín — Graph

°F

Holguín temperature yesterday

Maximum temperature yesterday: 86 °F (at 3:51 PM)
Minimum temperature yesterday: 72 °F (at 4:50 AM)
Average temperature yesterday: 78 °F

Past Weeks' High & Low Weather Summary

 TemperatureHumidityPressure
High93 °F (May 18, 2:51 PM)94% (May 18, 6:54 AM)30.12 "Hg (May 18, 6:54 AM)
Low68 °F (May 27, 4:51 AM)33% (May 17, 3:50 PM)29.89 "Hg (May 20, 4:50 PM)
Average81 °F67%30.03 "Hg
* Reported May 14 1:50 AM — May 29 1:50 AM, Holguín, Weather by CustomWeather, © 2015

Note: Actual official high and low records may vary slightly from our data, if they occured in-between our weather recording intervals... More about our weather records

Advertising

Holguín weather history for previous 24 hours

 ConditionsComfort  
Time TempWeatherWind HumidityBarometerVisibility
1:50 AM
Fri, May 29
77 °FOvercast.7 mph74%29.98 "HgN/A
12:51 AM77 °FOvercast.9 mph74%29.98 "HgN/A
11:50 PM
Thu, May 28
77 °FPassing clouds.6 mph74%30.01 "HgN/A
10:50 PM77 °FPartly cloudy.9 mph74%30.01 "HgN/A
9:51 PM77 °FPartly cloudy.12 mph74%30.01 "HgN/A
8:50 PM79 °FPassing clouds.8 mph70%30.01 "HgN/A
7:50 PM79 °FPartly sunny.13 mph70%29.98 "Hg6 mi
6:50 PM81 °FPartly sunny.15 mph62%29.95 "Hg6 mi
5:51 PM82 °FBroken clouds.15 mph58%29.95 "Hg6 mi
4:51 PM84 °FBroken clouds.16 mph55%29.92 "Hg6 mi
3:51 PM86 °FPartly sunny.18 mph52%29.95 "Hg6 mi
2:50 PM84 °FPartly sunny.17 mph58%29.95 "Hg6 mi
1:50 PM82 °FScattered showers. Partly sunny.14 mph66%N/A5 mi
12:50 PM84 °FBroken clouds.14 mph58%29.98 "Hg6 mi
11:51 AM82 °FBroken clouds.13 mph58%29.98 "Hg6 mi
10:51 AM81 °FBroken clouds.12 mph66%30.01 "Hg6 mi
9:51 AM79 °FBroken clouds.10 mph70%30.01 "Hg6 mi
8:51 AM79 °FBroken clouds.9 mph70%30.01 "Hg6 mi
7:52 AM75 °FBroken clouds.9 mph83%29.98 "Hg6 mi
6:50 AM72 °FPartly cloudy.3 mph88%29.98 "Hg6 mi
5:50 AM72 °FPassing clouds.6 mph88%29.95 "Hg6 mi
4:50 AM72 °FMild.5 mph88%29.95 "Hg5 mi
3:50 AM73 °FClear.5 mph83%29.95 "Hg5 mi
Weather by CustomWeather, © 2015

See weather overviewHow to use our weather pages